SCP
0 0 0 0 0 0 0 0 0 0 0 -0 -0 -0 0 0 0 -0 -0 -0 -1 -1 -0 -0 -0 -0 -0 -0 -0 -0 -0 -0 -0 -0 -0 -0 -0 -0 -0 -0 -0 -0 -0 -0 -0 -0 0 0 -0
0 0 0 0 0 0 0 0 0 0 0 -0 -0 0 0 0 0 0 0 0 -0 -1 -0 -0 -0 -0 -0 -0 -0 -0 -0 -0 -0 -0 -0 -0 0 0 0 -0 -0 -0 -0 -0 -0 -0 0 -0 -0
0 0 0 0 0 0 0 0 0 0 -0 -0 0 0 0 0 0 0 0 -0 0 -0 -0 -0 -0 -0 -1 -0 -0 0 0 0 0 0 0 0 0 0 0 0 0 0 -0 -0 -0 0 -0 -0 -0
0 0 0 0 0 0 0 0 0 0 0 0 0 0 0 0 0 0 0 0 0 0 0 -0 -0 -0 -0 -0 -0 0 0 0 0 0 0 0 0 0 0 0 0 0 0 0 0 0 -0 -0 -0
0 0 0 0 0 0 0 0 0 0 0 0 0 0 0 0 0 0 0 0 0 0 0 -0 0 0 -0 -0 -0 0 0 0 0 0 0 0 0 0 0 0 0 0 0 0 0 0 0 -0 -0
0 0 0 0 0 0 0 0 0 0 0 0 0 0 0 0 0 0 0 -0 0 0 0 -0 -0 0 0 0 0 0 0 0 0 0 0 0 0 0 0 0 0 0 0 0 0 0 0 -0 -0
0 0 0 0 0 0 0 0 0 0 0 0 0 0 0 0 0 0 0 0 1 1 0 0 -0 -0 0 0 0 0 0 0 0 0 0 0 0 0 0 0 0 1 0 0 0 0 0 0 -0
0 0 0 0 0 0 0 0 0 0 0 0 0 0 0 0 0 0 0 1 1 2 1 0 1 1 1 1 1 1 0 0 0 1 1 0 0 0 0 0 0 1 0 0 0 0 0 0 -0
0 0 0 0 0 0 0 0 0 0 0 0 0 0 0 0 0 0 0 0 0 0 1 1 1 1 1 1 1 1 1 0 0 1 1 1 1 1 1 1 1 1 1 0 0 0 0 0 0
0 0 0 0 0 0 0 0 0 0 0 0 0 0 0 0 0 0 0 0 0 0 0 0 0 1 0 0 1 1 2 1 1 1 1 1 1 1 1 1 1 1 1 0 0 0 0 0 0
0 0 0 0 0 0 0 0 0 0 0 0 0 0 0 0 0 0 0 0 0 0 0 0 0 0 0 0 0 1 1 2 1 1 1 1 1 1 1 1 1 1 1 1 1 0 0 0 0
0 0 0 0 0 0 0 0 0 0 0 0 0 0 0 0 0 0 0 0 0 0 0 0 0 0 0 0 0 0 1 1 1 1 1 1 1 0 1 1 1 1 1 1 1 0 0 0 0
0 0 0 0 0 -0 0 0 0 0 0 0 0 0 0 0 0 0 0 0 0 0 0 0 0 0 0 0 0 0 0 0 1 1 1 1 1 0 0 0 1 1 1 1 1 0 0 0 0
0 0 0 0 0 0 0 0 0 0 0 0 0 0 0 0 0 0 0 0 0 0 0 -0 -0 -0 -0 -0 0 0 0 0 0 1 0 0 1 0 0 0 0 1 1 1 1 0 0 0 0
0 0 0 0 0 0 0 0 0 0 0 0 0 0 0 0 0 0 0 0 0 0 0 -0 -0 -0 -0 -0 -0 -0 -0 0 0 0 0 -0 0 1 0 0 0 1 1 1 1 0 0 0 0
0 0 0 0 0 0 0 0 0 0 0 0 0 0 0 0 0 0 0 0 0 0 0 0 0 0 0 0 -0 -0 -0 0 0 0 0 0 0 0 0 0 1 1 1 1 1 0 0 0 0
0 0 0 0 0 0 0 0 0 0 0 0 0 0 0 0 0 0 0 0 0 0 0 0 0 0 -0 0 0 0 -0 -0 0 0 0 0 0 0 0 0 0 1 1 1 1 0 0 0 0
0 0 0 0 0 0 0 0 0 0 0 0 0 0 0 0 0 0 0 0 0 0 0 0 0 0 0 0 0 0 0 0 -0 -0 0 0 0 0 0 0 0 1 0 1 1 1 0 0 0
0 0 0 0 0 0 0 0 0 0 0 0 0 0 0 0 0 0 0 0 0 0 0 0 0 0 0 0 0 0 -0 0 0 -0 -0 0 0 0 0 0 0 0 0 0 1 1 0 0 0
0 0 0 0 0 0 0 0 0 0 0 0 0 0 0 0 0 0 0 0 0 0 0 0 0 0 0 0 0 0 0 -0 -0 0 0 -0 0 0 0 0 0 0 0 0 0 1 1 0 0
0 0 0 0 0 0 0 -0 -0 0 0 0 0 0 0 0 0 0 0 0 0 0 0 0 0 0 0 0 0 0 0 0 0 -0 -0 0 0 0 0 0 0 0 0 0 0 0 1 1 0
0 0 0 0 0 0 0 0 0 0 0 0 0 0 0 0 0 0 0 0 0 0 0 0 0 0 0 0 0 0 0 0 0 0 0 0 0 0 0 0 0 0 0 0 0 -0 1 1 0
0 0 0 0 0 0 0 0 0 0 0 0 0 0 0 0 0 0 0 0 0 0 0 0 0 0 0 0 0 0 0 0 0 0 0 0 0 0 0 0 0 0 0 -0 0 0 0 1 1
0 0 0 0 0 0 0 0 0 0 0 0 0 0 0 0 0 0 0 0 0 0 0 0 0 0 0 0 0 0 0 0 0 0 0 0 0 0 0 0 0 0 0 0 -0 0 0 0 1
0 0 0 0 0 0 0 0 0 0 0 0 0 0 0 0 0 0 0 0 0 0 0 0 0 0 0 0 0 0 0 0 0 0 0 0 0 0 0 0 0 0 0 0 0 0 0 0 1
0 0 0 0 0 0 0 0 0 0 0 0 0 0 0 0 0 0 0 0 0 0 0 0 0 0 0 0 0 0 0 0 0 0 0 0 0 0 0 0 0 0 0 0 0 0 0 1 1
0 0 0 0 0 0 0 0 0 0 0 0 0 0 0 0 0 0 0 0 0 0 0 0 0 0 0 0 0 0 0 0 0 0 0 0 0 0 0 0 0 0 0 0 0 0 0 1 1
0 0 0 0 0 0 0 0 0 0 0 0 0 0 0 0 0 0 0 0 0 0 0 0 0 0 0 0 0 0 0 0 0 0 0 0 0 0 0 0 0 0 0 0 0 0 0 1 1
0 0 0 0 0 0 0 0 0 0 0 0 0 0 0 0 0 0 0 0 0 0 0 0 0 0 0 0 0 0 0 0 0 0 0 0 0 0 0 0 0 0 0 -0 1 1 1 1 0
0 0 0 0 0 0 0 0 0 0 0 0 0 0 0 0 0 0 0 0 0 0 0 0 0 0 0 0 0 0 0 0 0 0 0 0 0 0 0 0 0 0 0 -0 1 1 1 0 1
Wind_Speed_500mb
8 5 11 5 8 10 4 5 4 13 9 7 18 17 14 20 9 10 12 7 20 13 19 30 30 27 28 28 25 24 23 25 29 32 34 34 37 39 41 38 32 28 27 28 29 30 31 31 28
7 3 3 6 9 8 6 8 17 13 30 72 73 52 30 15 30 25 30 10 13 11 12 27 30 25 27 26 26 25 22 19 24 31 33 33 35 39 42 39 33 28 27 27 28 28 30 30 27
5 8 3 8 7 8 9 5 11 17 45 38 14 25 14 8 19 12 28 13 16 19 13 17 25 23 23 26 24 23 22 18 17 25 31 34 36 40 42 38 32 28 28 25 26 26 26 29 27
9 4 4 8 5 5 10 8 5 17 50 40 41 15 34 21 10 17 29 18 11 10 12 16 16 20 20 22 24 24 22 19 15 16 25 32 36 39 41 38 32 27 27 24 24 25 25 25 26
13 3 8 8 8 0 4 16 27 12 21 43 41 18 32 26 11 19 35 22 2 7 10 15 14 14 18 18 21 22 22 22 19 16 18 27 34 37 40 40 35 29 28 24 22 23 24 22 23
4 3 10 2 6 1 6 26 49 25 25 42 36 26 18 26 24 25 25 28 8 10 11 14 17 12 6 16 18 22 24 24 23 20 18 22 30 35 38 40 39 35 30 27 24 23 24 23 21
8 7 7 6 8 5 3 14 18 18 23 14 22 12 19 30 26 34 32 30 23 9 11 12 13 12 6 3 21 24 26 27 27 25 22 21 27 34 38 39 41 40 35 30 27 25 25 24 23
4 8 6 2 9 7 6 19 24 17 8 15 10 9 9 26 24 37 38 46 32 17 13 12 11 15 16 16 17 28 28 29 29 30 30 26 27 32 38 41 42 42 41 37 33 29 28 27 25
7 9 1 2 7 4 5 11 18 11 15 26 30 46 31 21 21 25 41 44 43 37 15 7 8 9 9 11 12 20 27 27 30 33 36 36 35 36 38 43 45 45 45 44 39 35 32 29 28
9 7 11 7 12 5 7 15 10 6 19 25 37 32 15 18 24 15 36 39 36 34 36 32 17 11 11 18 17 9 14 24 30 34 38 43 40 38 39 43 46 48 47 46 43 40 37 35 31
11 10 10 6 23 14 7 9 3 6 0 13 31 27 18 20 15 5 11 28 28 28 24 20 21 18 15 16 19 18 17 21 25 29 37 43 48 46 46 46 49 53 53 52 50 47 45 39 35
11 11 9 19 21 12 6 10 2 3 9 28 24 21 22 14 11 14 10 3 12 13 16 13 7 12 12 14 14 14 25 25 30 33 38 41 49 55 55 54 53 56 59 59 59 55 48 43 39
8 1 2 14 24 21 19 12 10 15 6 28 25 16 15 20 23 21 17 16 18 18 9 14 17 20 26 26 24 21 16 22 28 34 39 44 47 56 61 64 63 60 63 65 65 62 57 50 46
8 5 2 6 6 8 17 8 7 14 11 31 24 22 22 27 22 22 18 13 12 15 23 31 36 36 36 36 37 34 33 27 30 35 42 40 45 56 61 69 72 72 69 66 66 68 63 59 52
9 7 11 13 17 10 19 6 14 36 27 31 29 25 38 30 26 20 13 10 11 21 31 35 37 42 46 53 53 53 52 52 47 45 47 51 53 49 67 68 80 80 77 73 68 67 64 65 59
8 9 3 16 14 13 21 14 15 17 41 39 34 45 45 36 27 19 16 17 23 27 30 37 41 40 40 43 49 53 51 50 54 50 46 45 46 60 59 55 76 81 85 81 76 71 70 65 66
8 6 12 17 12 11 11 13 20 33 33 32 32 53 48 40 28 21 17 16 24 29 31 36 45 49 54 56 54 52 57 56 51 52 50 44 43 44 57 72 56 76 87 91 85 79 74 69 68
10 8 7 5 2 6 9 11 14 36 37 29 35 55 53 47 38 28 20 20 26 25 28 34 40 48 56 61 63 63 61 62 68 63 62 59 55 51 45 49 80 55 82 94 96 88 80 75 66
8 3 4 8 9 4 13 13 19 39 25 21 26 58 60 50 38 27 20 18 16 18 25 31 39 48 52 53 58 64 68 71 73 74 72 69 58 49 52 52 50 78 86 97 100 96 89 83 72
9 5 7 12 6 4 10 21 19 18 20 35 44 67 61 52 47 37 25 14 16 19 23 32 41 49 54 57 51 56 63 67 69 76 82 83 70 61 55 53 61 57 85 93 85 100 100 89 83
7 8 8 14 6 7 10 21 12 11 15 32 46 52 64 69 58 40 24 14 9 13 25 38 47 46 51 57 57 61 67 71 77 80 84 77 72 62 65 56 62 76 72 81 97 87 102 100 92
7 8 3 8 9 7 9 12 12 16 27 15 38 55 75 64 48 35 27 15 10 19 30 40 45 53 58 61 63 66 64 69 68 71 74 75 71 71 68 70 66 66 86 89 89 120 99 100 100
13 11 8 5 3 4 6 4 16 9 14 19 20 55 67 55 44 35 22 10 12 29 42 48 52 56 60 64 63 64 69 70 69 67 70 75 76 74 72 71 73 73 75 88 106 98 89 103 98
8 10 13 9 7 4 12 17 11 7 11 6 15 53 57 49 34 22 13 10 24 37 42 44 48 53 60 64 69 70 67 74 76 70 71 77 79 77 75 75 79 85 77 74 81 98 114 93 100
11 12 7 8 4 12 6 7 19 22 16 18 28 56 52 35 22 15 9 20 27 37 38 39 49 58 63 70 75 71 74 74 79 77 70 69 72 75 80 76 79 89 85 69 88 96 94 109 99
13 18 11 14 6 8 12 11 10 11 17 47 59 46 32 24 11 11 16 19 25 28 33 41 55 65 72 78 79 70 65 62 66 70 75 75 76 81 82 85 82 88 85 77 87 95 87 113 92
9 9 17 6 2 2 9 10 8 4 11 23 32 31 30 20 21 21 16 17 19 26 39 52 59 67 72 76 80 80 71 66 70 75 78 85 87 86 88 91 85 88 87 78 86 97 97 79 108
11 11 8 5 6 9 10 10 11 10 8 8 12 24 32 28 30 18 14 15 25 38 47 52 62 64 69 80 80 70 62 59 68 76 74 73 85 91 91 91 87 89 85 95 89 93 95 91 115
5 4 6 9 10 10 3 11 9 15 17 18 19 25 30 36 26 18 19 26 31 38 48 54 58 64 73 83 81 76 68 67 69 72 75 71 75 79 87 86 86 82 79 88 90 94 89 114 129
16 18 14 10 10 9 9 13 9 17 16 15 16 24 23 25 20 18 22 24 30 40 48 53 62 69 78 78 76 69 68 64 67 72 74 72 72 71 77 78 81 80 78 93 97 96 97 130 114
Wind_Direction_500mb
308 308 320 33 55 67 317 69 294 83 44 208 140 126 120 89 104 154 22 56 35 115 160 169 168 172 162 153 147 137 134 148 155 159 162 163 164 166 167 164 161 155 149 144 139 131 123 118 131
325 325 3 85 85 71 291 286 96 92 110 109 103 98 72 68 82 67 33 106 57 82 121 179 172 176 172 164 156 150 139 141 156 161 164 164 165 167 170 169 166 161 157 151 147 142 132 128 138
7 334 74 93 111 162 170 215 173 99 144 149 112 68 58 62 65 62 27 93 76 68 100 145 179 178 183 173 166 160 152 146 151 166 169 169 170 172 174 174 170 168 167 161 158 156 145 141 142
345 9 82 85 203 243 185 154 159 95 73 109 99 59 65 75 67 48 26 61 75 81 85 109 159 189 190 190 179 171 168 165 162 169 178 180 179 180 181 181 179 177 178 175 171 170 163 153 151
342 15 55 84 245 300 10 90 100 86 97 89 92 108 71 80 91 64 39 48 102 142 102 102 108 183 203 206 203 193 184 184 184 183 187 194 192 190 189 190 189 188 186 187 186 184 180 169 164
345 63 56 51 255 342 60 93 86 79 93 97 92 84 67 74 96 35 29 38 77 189 142 114 106 97 181 230 234 223 211 199 198 200 201 203 207 205 201 200 199 198 198 199 200 198 195 188 181
126 82 194 197 160 40 56 70 79 92 80 46 133 97 82 75 81 35 38 66 68 140 164 136 119 108 79 271 244 241 239 227 210 207 215 221 218 217 215 212 210 208 210 212 215 211 209 202 196
251 93 14 243 202 73 6 83 94 72 65 101 88 126 104 79 97 51 60 74 72 91 164 134 91 35 11 348 273 237 230 242 238 222 216 225 234 230 225 223 221 219 218 220 222 224 221 216 208
227 60 246 241 91 151 94 98 93 83 97 84 105 104 101 93 106 80 67 66 66 80 94 175 125 35 5 6 343 246 240 241 247 246 236 226 229 232 233 233 230 229 228 226 227 228 229 227 221
109 110 220 195 148 123 64 82 120 98 114 104 102 102 95 74 87 74 68 76 78 76 74 79 54 23 347 345 345 360 270 266 268 261 252 245 240 239 240 238 237 237 236 233 232 231 232 233 229
162 178 184 174 121 110 68 87 97 132 31 172 129 107 75 81 72 64 53 71 75 75 70 57 59 50 28 2 334 316 285 282 285 276 270 262 251 245 242 242 241 239 238 236 236 234 233 233 235
161 197 174 163 143 134 137 135 317 207 252 157 135 111 89 95 136 155 209 222 73 65 62 63 5 315 313 331 343 333 303 297 283 273 276 271 260 255 250 247 244 244 243 242 240 240 239 236 235
150 174 220 180 166 162 158 170 209 275 181 148 130 104 117 146 141 147 164 208 250 265 326 340 331 321 315 311 300 301 290 291 286 290 279 271 269 263 256 255 251 249 249 247 246 244 243 239 235
319 153 272 273 232 210 159 215 179 230 181 151 150 147 159 158 165 161 166 182 229 268 278 285 296 305 307 302 303 300 300 291 281 277 277 267 272 270 264 258 255 253 250 251 251 250 248 244 239
357 358 350 261 241 209 160 297 221 252 195 171 165 169 159 171 180 193 199 232 276 298 295 291 291 293 295 300 301 296 290 290 289 288 287 288 261 270 262 265 259 256 253 253 251 252 251 247 242
5 53 34 277 177 222 155 250 253 271 178 181 191 164 163 165 183 189 223 260 287 298 308 314 316 317 311 305 303 305 303 295 289 286 282 282 290 270 267 257 259 261 256 252 251 252 251 251 239
349 231 206 308 216 138 157 235 241 172 187 209 201 167 164 164 175 201 230 263 289 302 310 323 328 329 329 327 320 309 306 307 300 294 292 284 279 283 281 255 262 254 260 253 250 249 250 251 239
213 223 221 253 50 119 216 250 274 218 217 226 206 172 170 175 184 197 218 258 286 304 321 323 323 323 322 321 321 320 314 308 308 304 298 294 290 280 296 282 273 257 247 251 249 246 246 246 242
237 198 259 250 263 223 214 248 255 255 244 228 204 183 173 177 175 186 209 248 277 295 304 313 316 317 316 318 322 319 315 313 309 309 309 301 294 285 278 273 284 255 259 242 248 245 242 240 237
191 218 260 292 230 170 289 283 240 216 226 236 229 187 180 170 170 175 179 198 258 295 311 315 314 313 313 311 312 308 308 308 308 305 303 305 293 285 277 274 268 267 260 259 239 242 239 236 230
219 194 222 231 319 354 335 287 271 268 247 253 240 218 205 183 172 170 171 196 232 284 302 306 310 310 311 310 304 298 297 296 299 304 306 303 297 282 277 277 268 267 269 269 248 238 237 233 231
228 219 93 44 47 233 77 283 273 279 282 254 251 213 190 176 175 171 165 184 253 295 309 311 306 308 312 314 305 303 300 301 303 304 305 302 295 291 284 282 276 275 271 268 261 258 229 228 228
225 115 111 113 48 346 188 295 274 264 273 251 201 175 172 171 169 157 167 192 295 312 310 308 305 306 312 314 312 304 298 296 295 297 300 299 294 291 290 286 285 283 275 271 262 259 248 222 222
126 66 35 50 101 303 226 179 271 215 215 206 150 162 162 153 151 161 183 263 290 297 299 297 303 310 313 313 312 307 301 297 295 291 291 291 292 292 288 289 289 289 279 267 266 261 250 244 223
85 65 349 328 349 232 275 170 242 304 303 177 158 150 147 148 154 159 242 270 284 291 286 298 308 314 318 318 315 306 301 295 290 289 289 292 287 287 286 286 291 292 280 260 262 250 259 240 216
178 149 156 228 217 269 300 247 279 332 55 103 127 135 139 141 168 219 239 270 281 274 292 308 315 317 319 319 318 311 307 303 294 288 283 280 281 285 288 290 297 288 278 251 253 253 252 234 227
183 157 178 100 297 20 247 295 319 324 66 101 126 142 162 181 204 223 242 260 256 293 307 313 315 317 320 324 317 313 306 301 297 293 286 276 276 278 284 287 292 284 280 257 251 246 244 224 210
142 166 81 7 216 248 277 256 227 195 180 160 170 183 198 207 193 190 230 251 290 302 306 312 315 321 322 324 323 312 307 303 301 299 291 287 276 273 276 282 285 279 285 266 246 236 225 214 206
143 177 90 129 149 182 244 267 225 195 178 181 204 220 217 199 189 210 260 275 287 298 308 315 321 324 323 322 321 315 308 308 307 305 299 293 285 275 271 278 281 282 286 258 247 230 222 200 203
180 182 150 140 231 221 166 260 258 180 186 180 237 284 269 185 183 228 251 275 292 305 312 321 326 323 322 317 315 309 309 308 307 307 303 297 290 276 273 280 281 282 284 250 245 229 213 190 197
Wind_Speed_850mb
8 5 11 5 8 10 4 5 4 13 9 7 18 17 14 20 9 10 12 7 20 13 19 30 30 27 28 28 25 24 23 25 29 32 34 34 37 39 41 38 32 28 27 28 29 30 31 31 28
7 3 3 6 9 8 6 8 17 13 30 72 73 52 30 15 30 25 30 10 13 11 12 27 30 25 27 26 26 25 22 19 24 31 33 33 35 39 42 39 33 28 27 27 28 28 30 30 27
5 8 3 8 7 8 9 5 11 17 45 38 14 25 14 8 19 12 28 13 16 19 13 17 25 23 23 26 24 23 22 18 17 25 31 34 36 40 42 38 32 28 28 25 26 26 26 29 27
9 4 4 8 5 5 10 8 5 17 50 40 41 15 34 21 10 17 29 18 11 10 12 16 16 20 20 22 24 24 22 19 15 16 25 32 36 39 41 38 32 27 27 24 24 25 25 25 26
13 3 8 8 8 0 4 16 27 12 21 43 41 18 32 26 11 19 35 22 2 7 10 15 14 14 18 18 21 22 22 22 19 16 18 27 34 37 40 40 35 29 28 24 22 23 24 22 23
4 3 10 2 6 1 6 26 49 25 25 42 36 26 18 26 24 25 25 28 8 10 11 14 17 12 6 16 18 22 24 24 23 20 18 22 30 35 38 40 39 35 30 27 24 23 24 23 21
8 7 7 6 8 5 3 14 18 18 23 14 22 12 19 30 26 34 32 30 23 9 11 12 13 12 6 3 21 24 26 27 27 25 22 21 27 34 38 39 41 40 35 30 27 25 25 24 23
4 8 6 2 9 7 6 19 24 17 8 15 10 9 9 26 24 37 38 46 32 17 13 12 11 15 16 16 17 28 28 29 29 30 30 26 27 32 38 41 42 42 41 37 33 29 28 27 25
7 9 1 2 7 4 5 11 18 11 15 26 30 46 31 21 21 25 41 44 43 37 15 7 8 9 9 11 12 20 27 27 30 33 36 36 35 36 38 43 45 45 45 44 39 35 32 29 28
9 7 11 7 12 5 7 15 10 6 19 25 37 32 15 18 24 15 36 39 36 34 36 32 17 11 11 18 17 9 14 24 30 34 38 43 40 38 39 43 46 48 47 46 43 40 37 35 31
11 10 10 6 23 14 7 9 3 6 0 13 31 27 18 20 15 5 11 28 28 28 24 20 21 18 15 16 19 18 17 21 25 29 37 43 48 46 46 46 49 53 53 52 50 47 45 39 35
11 11 9 19 21 12 6 10 2 3 9 28 24 21 22 14 11 14 10 3 12 13 16 13 7 12 12 14 14 14 25 25 30 33 38 41 49 55 55 54 53 56 59 59 59 55 48 43 39
8 1 2 14 24 21 19 12 10 15 6 28 25 16 15 20 23 21 17 16 18 18 9 14 17 20 26 26 24 21 16 22 28 34 39 44 47 56 61 64 63 60 63 65 65 62 57 50 46
8 5 2 6 6 8 17 8 7 14 11 31 24 22 22 27 22 22 18 13 12 15 23 31 36 36 36 36 37 34 33 27 30 35 42 40 45 56 61 69 72 72 69 66 66 68 63 59 52
9 7 11 13 17 10 19 6 14 36 27 31 29 25 38 30 26 20 13 10 11 21 31 35 37 42 46 53 53 53 52 52 47 45 47 51 53 49 67 68 80 80 77 73 68 67 64 65 59
8 9 3 16 14 13 21 14 15 17 41 39 34 45 45 36 27 19 16 17 23 27 30 37 41 40 40 43 49 53 51 50 54 50 46 45 46 60 59 55 76 81 85 81 76 71 70 65 66
8 6 12 17 12 11 11 13 20 33 33 32 32 53 48 40 28 21 17 16 24 29 31 36 45 49 54 56 54 52 57 56 51 52 50 44 43 44 57 72 56 76 87 91 85 79 74 69 68
10 8 7 5 2 6 9 11 14 36 37 29 35 55 53 47 38 28 20 20 26 25 28 34 40 48 56 61 63 63 61 62 68 63 62 59 55 51 45 49 80 55 82 94 96 88 80 75 66
8 3 4 8 9 4 13 13 19 39 25 21 26 58 60 50 38 27 20 18 16 18 25 31 39 48 52 53 58 64 68 71 73 74 72 69 58 49 52 52 50 78 86 97 100 96 89 83 72
9 5 7 12 6 4 10 21 19 18 20 35 44 67 61 52 47 37 25 14 16 19 23 32 41 49 54 57 51 56 63 67 69 76 82 83 70 61 55 53 61 57 85 93 85 100 100 89 83
7 8 8 14 6 7 10 21 12 11 15 32 46 52 64 69 58 40 24 14 9 13 25 38 47 46 51 57 57 61 67 71 77 80 84 77 72 62 65 56 62 76 72 81 97 87 102 100 92
7 8 3 8 9 7 9 12 12 16 27 15 38 55 75 64 48 35 27 15 10 19 30 40 45 53 58 61 63 66 64 69 68 71 74 75 71 71 68 70 66 66 86 89 89 120 99 100 100
13 11 8 5 3 4 6 4 16 9 14 19 20 55 67 55 44 35 22 10 12 29 42 48 52 56 60 64 63 64 69 70 69 67 70 75 76 74 72 71 73 73 75 88 106 98 89 103 98
8 10 13 9 7 4 12 17 11 7 11 6 15 53 57 49 34 22 13 10 24 37 42 44 48 53 60 64 69 70 67 74 76 70 71 77 79 77 75 75 79 85 77 74 81 98 114 93 100
11 12 7 8 4 12 6 7 19 22 16 18 28 56 52 35 22 15 9 20 27 37 38 39 49 58 63 70 75 71 74 74 79 77 70 69 72 75 80 76 79 89 85 69 88 96 94 109 99
13 18 11 14 6 8 12 11 10 11 17 47 59 46 32 24 11 11 16 19 25 28 33 41 55 65 72 78 79 70 65 62 66 70 75 75 76 81 82 85 82 88 85 77 87 95 87 113 92
9 9 17 6 2 2 9 10 8 4 11 23 32 31 30 20 21 21 16 17 19 26 39 52 59 67 72 76 80 80 71 66 70 75 78 85 87 86 88 91 85 88 87 78 86 97 97 79 108
11 11 8 5 6 9 10 10 11 10 8 8 12 24 32 28 30 18 14 15 25 38 47 52 62 64 69 80 80 70 62 59 68 76 74 73 85 91 91 91 87 89 85 95 89 93 95 91 115
5 4 6 9 10 10 3 11 9 15 17 18 19 25 30 36 26 18 19 26 31 38 48 54 58 64 73 83 81 76 68 67 69 72 75 71 75 79 87 86 86 82 79 88 90 94 89 114 129
16 18 14 10 10 9 9 13 9 17 16 15 16 24 23 25 20 18 22 24 30 40 48 53 62 69 78 78 76 69 68 64 67 72 74 72 72 71 77 78 81 80 78 93 97 96 97 130 114
Wind_Direction_850mb
308 308 320 33 55 67 317 69 294 83 44 208 140 126 120 89 104 154 22 56 35 115 160 169 168 172 162 153 147 137 134 148 155 159 162 163 164 166 167 164 161 155 149 144 139 131 123 118 131
325 325 3 85 85 71 291 286 96 92 110 109 103 98 72 68 82 67 33 106 57 82 121 179 172 176 172 164 156 150 139 141 156 161 164 164 165 167 170 169 166 161 157 151 147 142 132 128 138
7 334 74 93 111 162 170 215 173 99 144 149 112 68 58 62 65 62 27 93 76 68 100 145 179 178 183 173 166 160 152 146 151 166 169 169 170 172 174 174 170 168 167 161 158 156 145 141 142
345 9 82 85 203 243 185 154 159 95 73 109 99 59 65 75 67 48 26 61 75 81 85 109 159 189 190 190 179 171 168 165 162 169 178 180 179 180 181 181 179 177 178 175 171 170 163 153 151
342 15 55 84 245 300 10 90 100 86 97 89 92 108 71 80 91 64 39 48 102 142 102 102 108 183 203 206 203 193 184 184 184 183 187 194 192 190 189 190 189 188 186 187 186 184 180 169 164
345 63 56 51 255 342 60 93 86 79 93 97 92 84 67 74 96 35 29 38 77 189 142 114 106 97 181 230 234 223 211 199 198 200 201 203 207 205 201 200 199 198 198 199 200 198 195 188 181
126 82 194 197 160 40 56 70 79 92 80 46 133 97 82 75 81 35 38 66 68 140 164 136 119 108 79 271 244 241 239 227 210 207 215 221 218 217 215 212 210 208 210 212 215 211 209 202 196
251 93 14 243 202 73 6 83 94 72 65 101 88 126 104 79 97 51 60 74 72 91 164 134 91 35 11 348 273 237 230 242 238 222 216 225 234 230 225 223 221 219 218 220 222 224 221 216 208
227 60 246 241 91 151 94 98 93 83 97 84 105 104 101 93 106 80 67 66 66 80 94 175 125 35 5 6 343 246 240 241 247 246 236 226 229 232 233 233 230 229 228 226 227 228 229 227 221
109 110 220 195 148 123 64 82 120 98 114 104 102 102 95 74 87 74 68 76 78 76 74 79 54 23 347 345 345 360 270 266 268 261 252 245 240 239 240 238 237 237 236 233 232 231 232 233 229
162 178 184 174 121 110 68 87 97 132 31 172 129 107 75 81 72 64 53 71 75 75 70 57 59 50 28 2 334 316 285 282 285 276 270 262 251 245 242 242 241 239 238 236 236 234 233 233 235
161 197 174 163 143 134 137 135 317 207 252 157 135 111 89 95 136 155 209 222 73 65 62 63 5 315 313 331 343 333 303 297 283 273 276 271 260 255 250 247 244 244 243 242 240 240 239 236 235
150 174 220 180 166 162 158 170 209 275 181 148 130 104 117 146 141 147 164 208 250 265 326 340 331 321 315 311 300 301 290 291 286 290 279 271 269 263 256 255 251 249 249 247 246 244 243 239 235
319 153 272 273 232 210 159 215 179 230 181 151 150 147 159 158 165 161 166 182 229 268 278 285 296 305 307 302 303 300 300 291 281 277 277 267 272 270 264 258 255 253 250 251 251 250 248 244 239
357 358 350 261 241 209 160 297 221 252 195 171 165 169 159 171 180 193 199 232 276 298 295 291 291 293 295 300 301 296 290 290 289 288 287 288 261 270 262 265 259 256 253 253 251 252 251 247 242
5 53 34 277 177 222 155 250 253 271 178 181 191 164 163 165 183 189 223 260 287 298 308 314 316 317 311 305 303 305 303 295 289 286 282 282 290 270 267 257 259 261 256 252 251 252 251 251 239
349 231 206 308 216 138 157 235 241 172 187 209 201 167 164 164 175 201 230 263 289 302 310 323 328 329 329 327 320 309 306 307 300 294 292 284 279 283 281 255 262 254 260 253 250 249 250 251 239
213 223 221 253 50 119 216 250 274 218 217 226 206 172 170 175 184 197 218 258 286 304 321 323 323 323 322 321 321 320 314 308 308 304 298 294 290 280 296 282 273 257 247 251 249 246 246 246 242
237 198 259 250 263 223 214 248 255 255 244 228 204 183 173 177 175 186 209 248 277 295 304 313 316 317 316 318 322 319 315 313 309 309 309 301 294 285 278 273 284 255 259 242 248 245 242 240 237
191 218 260 292 230 170 289 283 240 216 226 236 229 187 180 170 170 175 179 198 258 295 311 315 314 313 313 311 312 308 308 308 308 305 303 305 293 285 277 274 268 267 260 259 239 242 239 236 230
219 194 222 231 319 354 335 287 271 268 247 253 240 218 205 183 172 170 171 196 232 284 302 306 310 310 311 310 304 298 297 296 299 304 306 303 297 282 277 277 268 267 269 269 248 238 237 233 231
228 219 93 44 47 233 77 283 273 279 282 254 251 213 190 176 175 171 165 184 253 295 309 311 306 308 312 314 305 303 300 301 303 304 305 302 295 291 284 282 276 275 271 268 261 258 229 228 228
225 115 111 113 48 346 188 295 274 264 273 251 201 175 172 171 169 157 167 192 295 312 310 308 305 306 312 314 312 304 298 296 295 297 300 299 294 291 290 286 285 283 275 271 262 259 248 222 222
126 66 35 50 101 303 226 179 271 215 215 206 150 162 162 153 151 161 183 263 290 297 299 297 303 310 313 313 312 307 301 297 295 291 291 291 292 292 288 289 289 289 279 267 266 261 250 244 223
85 65 349 328 349 232 275 170 242 304 303 177 158 150 147 148 154 159 242 270 284 291 286 298 308 314 318 318 315 306 301 295 290 289 289 292 287 287 286 286 291 292 280 260 262 250 259 240 216
178 149 156 228 217 269 300 247 279 332 55 103 127 135 139 141 168 219 239 270 281 274 292 308 315 317 319 319 318 311 307 303 294 288 283 280 281 285 288 290 297 288 278 251 253 253 252 234 227
183 157 178 100 297 20 247 295 319 324 66 101 126 142 162 181 204 223 242 260 256 293 307 313 315 317 320 324 317 313 306 301 297 293 286 276 276 278 284 287 292 284 280 257 251 246 244 224 210
142 166 81 7 216 248 277 256 227 195 180 160 170 183 198 207 193 190 230 251 290 302 306 312 315 321 322 324 323 312 307 303 301 299 291 287 276 273 276 282 285 279 285 266 246 236 225 214 206
143 177 90 129 149 182 244 267 225 195 178 181 204 220 217 199 189 210 260 275 287 298 308 315 321 324 323 322 321 315 308 308 307 305 299 293 285 275 271 278 281 282 286 258 247 230 222 200 203
180 182 150 140 231 221 166 260 258 180 186 180 237 284 269 185 183 228 251 275 292 305 312 321 326 323 322 317 315 309 309 308 307 307 303 297 290 276 273 280 281 282 284 250 245 229 213 190 197